OV1-5 DEB, 5599

Orbit data source: Space-Track

OV1-5 DEB, 5599 is space debris in LEO originally from a launch on Wed, 30 Mar 1966 UTC launched from the Air Force Western Test Range (AFWTR). Debris objects in space refer to the collection of defunct objects orbiting the Earth. Examples of debris include non-operational satellites, rocket bodies, and fragments generated from explosions, collisions, or faulty payload assembly.

Loading next visibility...
OV1-5 DEB details
Identifier
5599, 1966-025G
Orbit
LEO
Last TLE update22 hours ago
Origin
Flag of USAFSC (US)
ManufacturerUnknown
MissionSpacecraft
Bus & MotorUnknown
MassUnknown
Launch date (UTC)
1966-03-30 (59 years ago)
Launch vehicleUnknown
Launch site
Air Force Western Test Range (AFWTR)
Object type
Payload
Rocket body
Debris
Shape & HBRUnknown
Radar Cross SectionSmall (<0.1 m²)

Expand to show TLE details & history

TLE from 22 hours ago
0 OV1-5 DEB
1 05599U 66025G   24355.56987133  .00026403  00000-0  50391-2 0  9993
2 05599 144.6193 239.5263 0032831  54.3168 306.0586 14.61944889 23997
Epoch: 2024-12-20T13:40Z
Definitive object data (Epoch: 2024-12-20T13:40:36.882Z)
Latitude-0.00006°
Longitude-55.26079°
Altitude672.276 km
Speed7.53 km/s
True Right ascension15h 58m 06s
True Declination0° 00' 00"
Sunlit
Object was in daylight at TLE epoch
Visualization TLE readout
Latitude-26.6231°
Longitude85.44482°
Altitude715.408 km
Speed7.487 km/s
Apparent Right ascension00h 21m 23s
Apparent Declination-33° 55' 37"
Sunlit
Object is in daylight
Visualization observer readout
Local Sidereal Time11:03:39
Azimuth285.005° WNW
Elevation-73.392°
Doppler factor1
Orbital elements
Apogee altitude713.211 km
Perigee altitude666.8 km
Semi-major axis7,068.142 km
Eccentricity0.0032831
Inclination144.6193°
RAAN239.5263°
Arg. of periapsis54.3168°
True anomaly305.75373°
Mean anomaly306.0586°
Eccentric anomaly305.90624°
Mean motion3.65246 °/min
BSTAR0.0050391
Orbital period98.56 mins
Loading maneuver chart data...
Loading historical data...
Loading historical data...
Loading historical data...
Loading historical data...
Loading historical data...
Loading historical data...
Loading historical data...

OV1-5 DEB Visibility forecast

Observer location: undefined°, undefined

Span
Click to sort rows by Start time (UTC) header in descending order
Start Az.
Max El. time (UTC)
Max El. Az.
Max El.
End time (UTC)
End Az.
7 mins2024-12-21 12:52:55.075Z126.777° SE2024-12-21 12:56:55.075Z198.124° SSW30.566°2024-12-21 12:59:55.075Z255.079° W
4 mins2024-12-21 14:28:55.075Z179.193° S2024-12-21 14:30:55.075Z212.252° SW16.159°2024-12-21 14:32:55.075Z241.594° WSW
4 mins2024-12-22 08:48:55.075Z129.644° SE2024-12-22 08:50:55.075Z168.694° S20.668°2024-12-22 08:52:55.075Z201.079° SSW
6 mins2024-12-22 10:21:55.075Z114.112° SE2024-12-22 10:23:55.075Z164.543° S33.751°2024-12-22 10:27:55.075Z240.403° WSW
6 mins2024-12-22 11:54:55.075Z116.156° SE2024-12-22 11:57:55.075Z198.679° SSW36.422°2024-12-22 12:00:55.075Z254.221° W
|